| time (UTC) | temp C | wind direction | speed KPH | gust KPH | rain 1hr cm | rain 24hr cm | rain mn cm | humidity % | barometer mb |
| 20260902123428 | 25 | 353 | 0.0 | 0.0 | 0.00 | 0.00 | 0.00 | 78 | 1015.7 |
| 20260902122926 | 25 | 5 | 3.2 | 3.2 | 0.00 | 0.00 | 0.00 | 80 | 1015.4 |
| 20260902122422 | 24 | 240 | 3.2 | 4.8 | 0.00 | 0.00 | 0.00 | 80 | 1015.5 |
| 20260902121918 | 24 | 1 | 1.6 | 1.6 | 0.00 | 0.00 | 0.00 | 81 | 1015.6 |
| 20260902121412 | 24 | 309 | 3.2 | 3.2 | 0.00 | 0.00 | 0.00 | 81 | 1015.5 |
| 20260902120907 | 24 | 340 | 0.0 | 1.6 | 0.00 | 0.00 | 0.00 | 82 | 1016.2 |
| 20260902120404 | 24 | 355 | 4.8 | 4.8 | 0.00 | 0.00 | 0.00 | 81 | 1016.2 |
| 20260902115903 | 24 | 3 | 4.8 | 4.8 | 0.00 | 0.00 | 0.00 | 80 | 1015.9 |
| 20260902115359 | 23 | 262 | 6.4 | 6.4 | 0.00 | 0.00 | 0.00 | 81 | 1015.5 |
| 20260902114856 | 23 | 340 | 3.2 | 4.8 | 0.00 | 0.00 | 0.00 | 83 | 1015.7 |
| 20260902114351 | 23 | 325 | 3.2 | 4.8 | 0.00 | 0.00 | 0.00 | 83 | 1015.6 |
| 20260902113845 | 23 | 15 | 1.6 | 1.6 | 0.00 | 0.00 | 0.00 | 83 | 1015.3 |
| 20260902113342 | 23 | 321 | 1.6 | 1.6 | 0.00 | 0.00 | 0.00 | 83 | 1015.3 |
| 20260902112840 | 23 | 336 | 6.4 | 11.3 | 0.00 | 0.00 | 0.00 | 84 | 1015.3 |
| 20260902112337 | 24 | 12 | 6.4 | 6.4 | 0.00 | 0.00 | 0.00 | 81 | 1015.0 |
| 20260902111833 | 24 | 291 | 4.8 | 6.4 | 0.00 | 0.00 | 0.00 | 80 | 1014.5 |
| 20260902111329 | 24 | 267 | 3.2 | 3.2 | 0.00 | 0.00 | 0.00 | 80 | 1014.6 |
| 20260902110824 | 24 | 211 | 4.8 | 4.8 | 0.00 | 0.00 | 0.00 | 80 | 1014.3 |
| 20260902110320 | 24 | 219 | 4.8 | 4.8 | 0.00 | 0.00 | 0.00 | 80 | 1014.4 |
| 20260902105820 | 24 | 278 | 3.2 | 3.2 | 0.00 | 0.00 | 0.00 | 80 | 1014.6 |
| 20260902105315 | 24 | 304 | 3.2 | 4.8 | 0.00 | 0.00 | 0.00 | 80 | 1014.5 |
| 20260902104810 | 24 | 286 | 1.6 | 3.2 | 0.00 | 0.00 | 0.00 | 80 | 1014.6 |
| 20260902104306 | 24 | 280 | 3.2 | 4.8 | 0.00 | 0.00 | 0.00 | 81 | 1014.4 |
| 20260902103800 | 24 | 303 | 3.2 | 3.2 | 0.00 | 0.00 | 0.00 | 81 | 1014.5 |
| 20260902103255 | 24 | 322 | 1.6 | 1.6 | 0.00 | 0.00 | 0.00 | 81 | 1014.5 |
| 20260902102750 | 24 | 282 | 3.2 | 3.2 | 0.00 | 0.00 | 0.00 | 81 | 1014.6 |
| 20260902102248 | 23 | 313 | 3.2 | 3.2 | 0.00 | 0.00 | 0.00 | 81 | 1014.8 |
| 20260902101743 | 23 | 311 | 3.2 | 3.2 | 0.00 | 0.00 | 0.00 | 81 | 1014.5 |
| 20260902101238 | 23 | 319 | 3.2 | 4.8 | 0.00 | 0.00 | 0.00 | 82 | 1014.5 |
| 20260902100737 | 23 | 235 | 4.8 | 4.8 | 0.00 | 0.00 | 0.00 | 82 | 1014.5 |
| 20260902100231 | 23 | 229 | 3.2 | 4.8 | 0.00 | 0.00 | 0.00 | 82 | 1014.5 |
| 20260902095726 | 23 | 298 | 3.2 | 3.2 | 0.00 | 0.00 | 0.00 | 82 | 1014.4 |
| 20260902095220 | 24 | 288 | 3.2 | 3.2 | 0.00 | 0.00 | 0.00 | 82 | 1014.5 |
| 20260902094715 | 24 | 227 | 4.8 | 4.8 | 0.00 | 0.00 | 0.00 | 82 | 1014.6 |
| 20260902094212 | 24 | 224 | 4.8 | 4.8 | 0.00 | 0.00 | 0.00 | 82 | 1014.6 |
| 20260902093710 | 24 | 281 | 3.2 | 3.2 | 0.00 | 0.00 | 0.00 | 81 | 1014.9 |
| 20260902093205 | 24 | 289 | 3.2 | 3.2 | 0.00 | 0.00 | 0.00 | 81 | 1014.7 |
| 20260902092659 | 24 | 211 | 6.4 | 9.7 | 0.00 | 0.00 | 0.00 | 81 | 1015.0 |
| 20260902092155 | 24 | 297 | 1.6 | 1.6 | 0.00 | 0.00 | 0.00 | 81 | 1015.1 |
| 20260902091649 | 24 | 328 | 3.2 | 3.2 | 0.00 | 0.00 | 0.00 | 81 | 1015.1 |
| 20260902091146 | 24 | 293 | 1.6 | 3.2 | 0.00 | 0.00 | 0.00 | 80 | 1015.0 |
| 20260902090641 | 25 | 332 | 1.6 | 1.6 | 0.00 | 0.00 | 0.00 | 80 | 1015.0 |
| 20260902090140 | 24 | 236 | 3.2 | 4.8 | 0.00 | 0.00 | 0.00 | 81 | 1015.0 |
| 20260902085636 | 24 | 232 | 3.2 | 3.2 | 0.00 | 0.00 | 0.00 | 81 | 1015.1 |
| 20260902085130 | 24 | 299 | 3.2 | 3.2 | 0.00 | 0.00 | 0.00 | 81 | 1014.9 |
| 20260902084627 | 24 | 279 | 3.2 | 3.2 | 0.00 | 0.00 | 0.00 | 81 | 1014.9 |
| 20260902084122 | 24 | 295 | 1.6 | 3.2 | 0.00 | 0.00 | 0.00 | 81 | 1014.8 |
| 20260902083617 | 24 | 294 | 3.2 | 3.2 | 0.00 | 0.00 | 0.00 | 82 | 1014.7 |
| 20260902083116 | 24 | 342 | 0.0 | 0.0 | 0.00 | 0.00 | 0.00 | 82 | 1014.7 |
| 20260902082612 | 24 | 282 | 3.2 | 4.8 | 0.00 | 0.00 | 0.00 | 82 | 1014.7 |
| 20260902082109 | 24 | 305 | 3.2 | 3.2 | 0.00 | 0.00 | 0.00 | 82 | 1014.7 |
| 20260902081605 | 24 | 346 | 1.6 | 1.6 | 0.00 | 0.00 | 0.00 | 82 | 1014.6 |
| 20260902081104 | 25 | 316 | 1.6 | 1.6 | 0.00 | 0.00 | 0.00 | 82 | 1014.6 |
| 20260902080559 | 25 | 290 | 3.2 | 3.2 | 0.00 | 0.00 | 0.00 | 81 | 1014.5 |
| 20260902080056 | 25 | 312 | 3.2 | 3.2 | 0.00 | 0.00 | 0.00 | 81 | 1014.2 |
| 20260902075555 | 25 | 321 | 1.6 | 1.6 | 0.00 | 0.00 | 0.00 | 81 | 1014.4 |
| 20260902075052 | 25 | 295 | 3.2 | 3.2 | 0.00 | 0.00 | 0.00 | 81 | 1014.4 |
| 20260902074547 | 25 | 287 | 1.6 | 1.6 | 0.00 | 0.00 | 0.00 | 82 | 1014.3 |
| 20260902074042 | 25 | 276 | 3.2 | 3.2 | 0.00 | 0.00 | 0.00 | 82 | 1014.3 |
| 20260902073537 | 25 | 294 | 3.2 | 3.2 | 0.00 | 0.00 | 0.00 | 82 | 1014.4 |
| 20260902073034 | 25 | 343 | 1.6 | 1.6 | 0.00 | 0.00 | 0.00 | 82 | 1014.4 |
| 20260902072529 | 25 | 322 | 1.6 | 1.6 | 0.00 | 0.00 | 0.00 | 82 | 1014.3 |
| 20260902072026 | 25 | 333 | 0.0 | 1.6 | 0.00 | 0.00 | 0.00 | 83 | 1014.2 |
| 20260902071525 | 25 | 331 | 0.0 | 0.0 | 0.00 | 0.00 | 0.00 | 83 | 1014.2 |
| 20260902071022 | 25 | 340 | 0.0 | 0.0 | 0.00 | 0.00 | 0.00 | 83 | 1014.2 |
| 20260902070517 | 25 | 326 | 0.0 | 1.6 | 0.00 | 0.00 | 0.00 | 83 | 1014.3 |
| 20260902070017 | 25 | 293 | 1.6 | 1.6 | 0.00 | 0.00 | 0.00 | 83 | 1014.3 |
| 20260902065511 | 25 | 319 | 1.6 | 1.6 | 0.00 | 0.00 | 0.00 | 84 | 1014.6 |
| 20260902065006 | 24 | 330 | 1.6 | 1.6 | 0.00 | 0.00 | 0.00 | 84 | 1014.4 |
| 20260902064502 | 25 | 338 | 3.2 | 3.2 | 0.00 | 0.00 | 0.00 | 84 | 1014.5 |
| 20260902063958 | 25 | 351 | 1.6 | 1.6 | 0.00 | 0.00 | 0.00 | 84 | 1014.3 |
| 20260902063457 | 25 | 327 | 1.6 | 1.6 | 0.00 | 0.00 | 0.00 | 84 | 1014.4 |
| 20260902062953 | 25 | 329 | 0.0 | 1.6 | 0.00 | 0.00 | 0.00 | 84 | 1014.6 |
| 20260902062445 | 25 | 333 | 1.6 | 1.6 | 0.00 | 0.00 | 0.00 | 83 | 1014.5 |
| 20260902061940 | 25 | 316 | 1.6 | 3.2 | 0.00 | 0.00 | 0.00 | 83 | 1014.7 |
| 20260902061435 | 25 | 295 | 3.2 | 3.2 | 0.00 | 0.00 | 0.00 | 83 | 1014.4 |
| 20260902060931 | 25 | 325 | 1.6 | 1.6 | 0.00 | 0.00 | 0.00 | 83 | 1014.9 |
| 20260902060427 | 25 | 325 | 1.6 | 1.6 | 0.00 | 0.00 | 0.00 | 83 | 1014.7 |
| 20260902055923 | 25 | 320 | 1.6 | 1.6 | 0.00 | 0.00 | 0.00 | 83 | 1014.6 |
| 20260902055419 | 25 | 322 | 1.6 | 1.6 | 0.00 | 0.00 | 0.00 | 83 | 1014.6 |
| 20260902054914 | 25 | 357 | 1.6 | 1.6 | 0.00 | 0.00 | 0.00 | 83 | 1014.6 |
| 20260902054409 | 25 | 335 | 1.6 | 1.6 | 0.00 | 0.00 | 0.00 | 83 | 1014.4 |
| 20260902053904 | 25 | 222 | 3.2 | 3.2 | 0.00 | 0.00 | 0.00 | 83 | 1014.5 |
| 20260902053400 | 25 | 305 | 1.6 | 1.6 | 0.00 | 0.00 | 0.00 | 83 | 1014.6 |
| 20260902052900 | 25 | 232 | 4.8 | 4.8 | 0.00 | 0.00 | 0.00 | 82 | 1014.6 |
| 20260902052355 | 25 | 315 | 1.6 | 1.6 | 0.00 | 0.00 | 0.00 | 82 | 1014.6 |
| 20260902051850 | 25 | 309 | 1.6 | 1.6 | 0.00 | 0.00 | 0.00 | 82 | 1014.7 |
| 20260902051349 | 26 | 344 | 1.6 | 1.6 | 0.00 | 0.00 | 0.00 | 82 | 1014.7 |
| 20260902050843 | 26 | 335 | 1.6 | 1.6 | 0.00 | 0.00 | 0.00 | 82 | 1014.9 |
| 20260902050342 | 26 | 291 | 3.2 | 3.2 | 0.00 | 0.00 | 0.00 | 82 | 1014.8 |
| 20260902045838 | 26 | 321 | 1.6 | 1.6 | 0.00 | 0.00 | 0.00 | 82 | 1014.9 |
| 20260902045334 | 26 | 319 | 1.6 | 1.6 | 0.00 | 0.00 | 0.00 | 82 | 1014.8 |
| 20260902044830 | 26 | 330 | 0.0 | 1.6 | 0.00 | 0.00 | 0.00 | 82 | 1014.7 |
| 20260902044325 | 26 | 325 | 0.0 | 1.6 | 0.00 | 0.00 | 0.00 | 83 | 1014.8 |
| 20260902043826 | 26 | 337 | 0.0 | 0.0 | 0.00 | 0.00 | 0.00 | 82 | 1014.6 |
| 20260902043321 | 26 | 339 | 0.0 | 1.6 | 0.00 | 0.00 | 0.00 | 82 | 1014.6 |
| 20260902042820 | 26 | 319 | 1.6 | 1.6 | 0.00 | 0.00 | 0.00 | 82 | 1014.8 |
| 20260902042315 | 26 | 341 | 1.6 | 3.2 | 0.00 | 0.00 | 0.00 | 82 | 1014.8 |
| 20260902041810 | 26 | 342 | 1.6 | 3.2 | 0.00 | 0.00 | 0.00 | 81 | 1014.7 |
| 20260902041310 | 26 | 305 | 1.6 | 3.2 | 0.00 | 0.00 | 0.00 | 81 | 1014.7 |
| 20260902040809 | 26 | 314 | 3.2 | 4.8 | 0.00 | 0.00 | 0.00 | 81 | 1014.7 |
| 20260902040305 | 26 | 303 | 1.6 | 1.6 | 0.00 | 0.00 | 0.00 | 80 | 1014.6 |
| 20260902035803 | 26 | 343 | 3.2 | 3.2 | 0.00 | 0.00 | 0.00 | 79 | 1014.7 |
| 20260902035259 | 27 | 268 | 4.8 | 6.4 | 0.00 | 0.00 | 0.00 | 79 | 1014.6 |
| 20260902034757 | 27 | 241 | 3.2 | 4.8 | 0.00 | 0.00 | 0.00 | 79 | 1014.7 |
| 20260902034253 | 27 | 233 | 6.4 | 6.4 | 0.00 | 0.00 | 0.00 | 78 | 1014.8 |
| 20260902033750 | 27 | 325 | 3.2 | 4.8 | 0.00 | 0.00 | 0.00 | 78 | 1014.7 |
| 20260902033246 | 27 | 275 | 3.2 | 3.2 | 0.00 | 0.00 | 0.00 | 78 | 1014.5 |
| 20260902032744 | 27 | 311 | 1.6 | 3.2 | 0.00 | 0.00 | 0.00 | 78 | 1014.6 |
| 20260902032240 | 27 | 303 | 1.6 | 3.2 | 0.00 | 0.00 | 0.00 | 77 | 1014.5 |
| 20260902031740 | 27 | 263 | 4.8 | 4.8 | 0.00 | 0.00 | 0.00 | 77 | 1014.6 |
| 20260902031235 | 27 | 308 | 3.2 | 4.8 | 0.00 | 0.00 | 0.00 | 77 | 1014.5 |
| 20260902030731 | 27 | 304 | 3.2 | 3.2 | 0.00 | 0.00 | 0.00 | 77 | 1014.5 |
| 20260902030231 | 27 | 281 | 1.6 | 1.6 | 0.00 | 0.00 | 0.00 | 77 | 1014.5 |
| 20260902025730 | 27 | 327 | 3.2 | 3.2 | 0.00 | 0.00 | 0.00 | 77 | 1014.5 |
| 20260902025225 | 27 | 312 | 1.6 | 3.2 | 0.00 | 0.00 | 0.00 | 77 | 1014.3 |
| 20260902024720 | 27 | 316 | 0.0 | 1.6 | 0.00 | 0.00 | 0.00 | 77 | 1014.6 |
| 20260902024216 | 27 | 329 | 1.6 | 1.6 | 0.00 | 0.00 | 0.00 | 77 | 1014.5 |
| 20260902023712 | 27 | 315 | 3.2 | 3.2 | 0.00 | 0.00 | 0.00 | 77 | 1014.5 |
| 20260902023207 | 27 | 120 | 3.2 | 3.2 | 0.00 | 0.00 | 0.00 | 77 | 1014.4 |
| 20260902022701 | 27 | 316 | 3.2 | 3.2 | 0.00 | 0.00 | 0.00 | 77 | 1014.4 |
| 20260902022156 | 27 | 321 | 1.6 | 3.2 | 0.00 | 0.00 | 0.00 | 77 | 1014.4 |
| 20260902021652 | 27 | 341 | 1.6 | 3.2 | 0.00 | 0.00 | 0.00 | 78 | 1014.4 |
| 20260902021151 | 28 | 325 | 1.6 | 1.6 | 0.00 | 0.00 | 0.00 | 78 | 1014.5 |
| 20260902020648 | 28 | 300 | 1.6 | 3.2 | 0.00 | 0.00 | 0.00 | 77 | 1014.6 |
| 20260902020143 | 28 | 308 | 1.6 | 3.2 | 0.00 | 0.00 | 0.00 | 78 | 1014.4 |
| 20260902015639 | 28 | 229 | 3.2 | 3.2 | 0.00 | 0.00 | 0.00 | 78 | 1014.5 |
| 20260902015135 | 28 | 325 | 1.6 | 1.6 | 0.00 | 0.00 | 0.00 | 78 | 1014.3 |
| 20260902014631 | 28 | 288 | 3.2 | 3.2 | 0.00 | 0.00 | 0.00 | 77 | 1014.3 |
| 20260902014126 | 28 | 349 | 1.6 | 1.6 | 0.00 | 0.00 | 0.00 | 77 | 1014.4 |
| 20260902013625 | 28 | 321 | 1.6 | 1.6 | 0.00 | 0.00 | 0.00 | 77 | 1014.2 |
| 20260902013121 | 28 | 338 | 0.0 | 1.6 | 0.00 | 0.00 | 0.00 | 77 | 1014.3 |
| 20260902012616 | 29 | 275 | 3.2 | 3.2 | 0.00 | 0.00 | 0.00 | 76 | 1014.1 |
| 20260902012112 | 29 | 338 | 3.2 | 3.2 | 0.00 | 0.00 | 0.00 | 76 | 1014.2 |
| 20260902011608 | 29 | 281 | 1.6 | 1.6 | 0.00 | 0.00 | 0.00 | 76 | 1014.2 |
| 20260902011106 | 29 | 228 | 4.8 | 4.8 | 0.00 | 0.00 | 0.00 | 76 | 1014.1 |
| 20260902010601 | 30 | 214 | 3.2 | 4.8 | 0.00 | 0.00 | 0.00 | 75 | 1014.2 |
| 20260902010057 | 30 | 302 | 1.6 | 1.6 | 0.00 | 0.00 | 0.00 | 74 | 1013.9 |
| 20260902005554 | 30 | 356 | 1.6 | 1.6 | 0.00 | 0.00 | 0.00 | 74 | 1014.0 |
| 20260902005051 | 30 | 330 | 0.0 | 1.6 | 0.00 | 0.00 | 0.00 | 73 | 1014.1 |
| 20260902004550 | 30 | 299 | 1.6 | 3.2 | 0.00 | 0.00 | 0.00 | 73 | 1014.0 |
| 20260902004045 | 30 | 309 | 4.8 | 4.8 | 0.00 | 0.00 | 0.00 | 73 | 1014.0 |
| 20260902003541 | 30 | 337 | 1.6 | 1.6 | 0.00 | 0.00 | 0.00 | 72 | 1013.9 |
| 20260902003036 | 30 | 337 | 1.6 | 1.6 | 0.00 | 0.00 | 0.00 | 71 | 1014.1 |
| 20260902002531 | 31 | 249 | 4.8 | 4.8 | 0.00 | 0.00 | 0.00 | 70 | 1013.9 |
| 20260902002026 | 31 | 197 | 6.4 | 9.7 | 0.00 | 0.00 | 0.00 | 69 | 1013.9 |
| 20260902001520 | 31 | 243 | 3.2 | 4.8 | 0.00 | 0.00 | 0.00 | 69 | 1013.9 |
| 20260902001016 | 31 | 322 | 1.6 | 3.2 | 0.00 | 0.00 | 0.00 | 68 | 1014.1 |
| 20260902000511 | 31 | 249 | 3.2 | 3.2 | 0.00 | 0.00 | 0.00 | 67 | 1014.0 |
| 20260902000005 | 31 | 227 | 6.4 | 6.4 | 0.00 | 0.00 | 0.00 | 67 | 1014.1 |
| 20260901235500 | 31 | 250 | 3.2 | 4.8 | 0.00 | 0.00 | 0.00 | 67 | 1014.0 |
| 20260901234955 | 32 | 247 | 6.4 | 9.7 | 0.00 | 0.00 | 0.00 | 65 | 1013.9 |
| 20260901234450 | 32 | 283 | 4.8 | 6.4 | 0.00 | 0.00 | 0.00 | 64 | 1014.1 |
| 20260901233944 | 32 | 242 | 6.4 | 9.7 | 0.00 | 0.00 | 0.00 | 63 | 1014.1 |
| 20260901233439 | 32 | 222 | 9.7 | 11.3 | 0.00 | 0.00 | 0.00 | 63 | 1014.1 |
| 20260901232936 | 33 | 208 | 6.4 | 6.4 | 0.00 | 0.00 | 0.00 | 62 | 1014.0 |
| 20260901232436 | 33 | 207 | 6.4 | 9.7 | 0.00 | 0.00 | 0.00 | 61 | 1013.7 |
| 20260901231931 | 33 | 319 | 6.4 | 6.4 | 0.00 | 0.00 | 0.00 | 61 | 1014.1 |
| 20260901231427 | 33 | 228 | 4.8 | 6.4 | 0.00 | 0.00 | 0.00 | 59 | 1014.1 |
| 20260901230924 | 33 | 236 | 6.4 | 11.3 | 0.00 | 0.00 | 0.00 | 59 | 1014.0 |
| 20260901230423 | 33 | 242 | 8.0 | 9.7 | 0.00 | 0.00 | 0.00 | 58 | 1014.1 |
| 20260901225919 | 33 | 253 | 11.3 | 14.5 | 0.00 | 0.00 | 0.00 | 58 | 1014.1 |
| 20260901225418 | 33 | 278 | 6.4 | 9.7 | 0.00 | 0.00 | 0.00 | 58 | 1014.3 |
| 20260901224913 | 33 | 260 | 6.4 | 9.7 | 0.00 | 0.00 | 0.00 | 57 | 1014.1 |
| 20260901224409 | 34 | 261 | 11.3 | 12.9 | 0.00 | 0.00 | 0.00 | 58 | 1014.1 |
| 20260901223906 | 34 | 240 | 6.4 | 9.7 | 0.00 | 0.00 | 0.00 | 59 | 1014.1 |
| 20260901223400 | 34 | 262 | 8.0 | 9.7 | 0.00 | 0.00 | 0.00 | 58 | 1014.0 |
| 20260901222856 | 34 | 289 | 4.8 | 4.8 | 0.00 | 0.00 | 0.00 | 57 | 1014.3 |
| 20260901222353 | 34 | 280 | 6.4 | 9.7 | 0.00 | 0.00 | 0.00 | 57 | 1014.3 |
| 20260901221848 | 34 | 265 | 8.0 | 11.3 | 0.00 | 0.00 | 0.00 | 57 | 1014.1 |
| 20260901221343 | 34 | 290 | 8.0 | 12.9 | 0.00 | 0.00 | 0.00 | 57 | 1014.3 |
| 20260901220843 | 35 | 242 | 6.4 | 9.7 | 0.00 | 0.00 | 0.00 | 56 | 1014.1 |
| 20260901220342 | 35 | 257 | 8.0 | 11.3 | 0.00 | 0.00 | 0.00 | 56 | 1014.2 |
| 20260901215841 | 35 | 318 | 6.4 | 9.7 | 0.00 | 0.00 | 0.00 | 57 | 1014.2 |
| 20260901215341 | 35 | 264 | 9.7 | 11.3 | 0.00 | 0.00 | 0.00 | 56 | 1014.0 |
| 20260901214839 | 35 | 264 | 4.8 | 6.4 | 0.00 | 0.00 | 0.00 | 57 | 1014.1 |
| 20260901214338 | 34 | 294 | 4.8 | 6.4 | 0.00 | 0.00 | 0.00 | 58 | 1014.2 |
| 20260901213833 | 35 | 260 | 9.7 | 11.3 | 0.00 | 0.00 | 0.00 | 58 | 1014.1 |
| 20260901213333 | 34 | 321 | 3.2 | 4.8 | 0.00 | 0.00 | 0.00 | 58 | 1014.2 |
| 20260901212827 | 34 | 266 | 6.4 | 11.3 | 0.00 | 0.00 | 0.00 | 57 | 1014.2 |
| 20260901212323 | 34 | 311 | 3.2 | 4.8 | 0.00 | 0.00 | 0.00 | 57 | 1014.1 |
| 20260901211819 | 35 | 263 | 8.0 | 11.3 | 0.00 | 0.00 | 0.00 | 58 | 1014.3 |
| 20260901211315 | 34 | 270 | 6.4 | 6.4 | 0.00 | 0.00 | 0.00 | 57 | 1014.3 |
| 20260901210810 | 35 | 268 | 3.2 | 4.8 | 0.00 | 0.00 | 0.00 | 56 | 1014.3 |
| 20260901210306 | 35 | 235 | 9.7 | 12.9 | 0.00 | 0.00 | 0.00 | 56 | 1014.4 |
| 20260901205802 | 34 | 291 | 12.9 | 12.9 | 0.00 | 0.00 | 0.00 | 58 | 1014.4 |
| 20260901205305 | 34 | 244 | 14.5 | 16.1 | 0.00 | 0.00 | 0.00 | 58 | 1014.6 |
| 20260901204757 | 34 | 270 | 11.3 | 14.5 | 0.00 | 0.00 | 0.00 | 58 | 1014.6 |
| 20260901204253 | 35 | 241 | 9.7 | 12.9 | 0.00 | 0.00 | 0.00 | 56 | 1014.4 |
| 20260901203754 | 35 | 222 | 3.2 | 4.8 | 0.00 | 0.00 | 0.00 | 56 | 1014.7 |
| 20260901203248 | 34 | 266 | 12.9 | 14.5 | 0.00 | 0.00 | 0.00 | 59 | 1014.6 |
| 20260901202748 | 34 | 271 | 4.8 | 4.8 | 0.00 | 0.00 | 0.00 | 58 | 1014.5 |
| 20260901202243 | 34 | 271 | 8.0 | 9.7 | 0.00 | 0.00 | 0.00 | 57 | 1014.6 |
| 20260901201739 | 35 | 253 | 14.5 | 17.7 | 0.00 | 0.00 | 0.00 | 58 | 1014.6 |
| 20260901201238 | 34 | 289 | 9.7 | 11.3 | 0.00 | 0.00 | 0.00 | 58 | 1014.6 |
| 20260901200733 | 33 | 266 | 9.7 | 11.3 | 0.00 | 0.00 | 0.00 | 62 | 1014.5 |
| 20260901200228 | 34 | 210 | 11.3 | 14.5 | 0.00 | 0.00 | 0.00 | 60 | 1014.6 |
| 20260901195726 | 35 | 271 | 12.9 | 17.7 | 0.00 | 0.00 | 0.00 | 61 | 1014.7 |
| 20260901195220 | 34 | 271 | 14.5 | 17.7 | 0.00 | 0.00 | 0.00 | 61 | 1014.8 |
| 20260901194716 | 34 | 210 | 12.9 | 14.5 | 0.00 | 0.00 | 0.00 | 61 | 1014.4 |
| 20260901194210 | 33 | 262 | 12.9 | 16.1 | 0.00 | 0.00 | 0.00 | 63 | 1014.9 |
| 20260901193707 | 34 | 246 | 8.0 | 9.7 | 0.00 | 0.00 | 0.00 | 62 | 1014.8 |
| 20260901193206 | 34 | 229 | 6.4 | 9.7 | 0.00 | 0.00 | 0.00 | 61 | 1014.7 |
| 20260901192701 | 34 | 255 | 6.4 | 6.4 | 0.00 | 0.00 | 0.00 | 62 | 1014.8 |
| 20260901192156 | 35 | 211 | 9.7 | 11.3 | 0.00 | 0.00 | 0.00 | 61 | 1014.9 |
| 20260901191651 | 34 | 270 | 4.8 | 4.8 | 0.00 | 0.00 | 0.00 | 62 | 1015.0 |
| 20260901191142 | 33 | 265 | 9.7 | 12.9 | 0.00 | 0.00 | 0.00 | 63 | 1015.0 |
| 20260901190638 | 35 | 310 | 8.0 | 11.3 | 0.00 | 0.00 | 0.00 | 61 | 1015.0 |
| 20260901190137 | 34 | 312 | 8.0 | 11.3 | 0.00 | 0.00 | 0.00 | 62 | 1015.0 |
| 20260901185636 | 33 | 268 | 6.4 | 6.4 | 0.00 | 0.00 | 0.00 | 60 | 1015.0 |
| 20260901185134 | 34 | 256 | 8.0 | 11.3 | 0.00 | 0.00 | 0.00 | 61 | 1015.0 |
| 20260901184630 | 35 | 299 | 3.2 | 4.8 | 0.00 | 0.00 | 0.00 | 60 | 1015.1 |
| 20260901184125 | 34 | 351 | 1.6 | 1.6 | 0.00 | 0.00 | 0.00 | 61 | 1015.2 |
| 20260901183620 | 34 | 8 | 4.8 | 4.8 | 0.00 | 0.00 | 0.00 | 61 | 1015.3 |
| 20260901183115 | 33 | 261 | 4.8 | 9.7 | 0.00 | 0.00 | 0.00 | 63 | 1015.1 |
| 20260901182612 | 33 | 276 | 8.0 | 11.3 | 0.00 | 0.00 | 0.00 | 65 | 1015.3 |
| 20260901182111 | 33 | 221 | 6.4 | 9.7 | 0.00 | 0.00 | 0.00 | 64 | 1015.1 |
| 20260901181611 | 33 | 194 | 4.8 | 6.4 | 0.00 | 0.00 | 0.00 | 64 | 1015.2 |
| 20260901181110 | 33 | 249 | 9.7 | 11.3 | 0.00 | 0.00 | 0.00 | 64 | 1015.1 |
| 20260901180609 | 33 | 324 | 4.8 | 6.4 | 0.00 | 0.00 | 0.00 | 66 | 1015.3 |
| 20260901180105 | 33 | 258 | 3.2 | 4.8 | 0.00 | 0.00 | 0.00 | 66 | 1015.4 |
| 20260901175603 | 33 | 5 | 6.4 | 6.4 | 0.00 | 0.00 | 0.00 | 67 | 1015.5 |
| 20260901175058 | 33 | 205 | 8.0 | 9.7 | 0.00 | 0.00 | 0.00 | 67 | 1015.4 |
| 20260901174554 | 32 | 304 | 4.8 | 6.4 | 0.00 | 0.00 | 0.00 | 69 | 1015.5 |
| 20260901174049 | 32 | 175 | 6.4 | 6.4 | 0.00 | 0.00 | 0.00 | 67 | 1015.5 |
| 20260901173544 | 32 | 320 | 4.8 | 9.7 | 0.00 | 0.00 | 0.00 | 68 | 1015.6 |
| 20260901173040 | 32 | 243 | 6.4 | 6.4 | 0.00 | 0.00 | 0.00 | 68 | 1015.5 |
| 20260901172535 | 32 | 289 | 3.2 | 4.8 | 0.00 | 0.00 | 0.00 | 67 | 1015.6 |
| 20260901172033 | 33 | 253 | 16.1 | 17.7 | 0.00 | 0.00 | 0.00 | 65 | 1015.7 |
| 20260901171533 | 32 | 217 | 3.2 | 6.4 | 0.00 | 0.00 | 0.00 | 69 | 1015.8 |
| 20260901171031 | 32 | 282 | 8.0 | 11.3 | 0.00 | 0.00 | 0.00 | 70 | 1015.7 |
| 20260901170525 | 32 | 255 | 14.5 | 14.5 | 0.00 | 0.00 | 0.00 | 71 | 1015.7 |
| 20260901170020 | 32 | 230 | 11.3 | 11.3 | 0.00 | 0.00 | 0.00 | 70 | 1015.7 |
| 20260901165514 | 32 | 247 | 4.8 | 6.4 | 0.00 | 0.00 | 0.00 | 71 | 1015.6 |
| 20260901165010 | 32 | 295 | 1.6 | 3.2 | 0.00 | 0.00 | 0.00 | 71 | 1015.7 |
| 20260901164505 | 32 | 355 | 6.4 | 6.4 | 0.00 | 0.00 | 0.00 | 74 | 1015.7 |
| 20260901164000 | 32 | 311 | 1.6 | 3.2 | 0.00 | 0.00 | 0.00 | 74 | 1015.8 |
| 20260901163456 | 31 | 215 | 3.2 | 4.8 | 0.00 | 0.00 | 0.00 | 73 | 1015.6 |
| 20260901162954 | 31 | 256 | 4.8 | 6.4 | 0.00 | 0.00 | 0.00 | 73 | 1015.9 |
| 20260901162449 | 31 | 261 | 6.4 | 6.4 | 0.00 | 0.00 | 0.00 | 74 | 1015.8 |
| 20260901161948 | 31 | 222 | 8.0 | 11.3 | 0.00 | 0.00 | 0.00 | 75 | 1015.7 |
| 20260901161448 | 31 | 230 | 8.0 | 9.7 | 0.00 | 0.00 | 0.00 | 75 | 1015.7 |
| 20260901160943 | 31 | 285 | 3.2 | 3.2 | 0.00 | 0.00 | 0.00 | 74 | 1015.8 |
| 20260901160439 | 31 | 202 | 1.6 | 3.2 | 0.00 | 0.00 | 0.00 | 74 | 1015.8 |
| 20260901155938 | 31 | 264 | 4.8 | 4.8 | 0.00 | 0.00 | 0.00 | 77 | 1015.9 |
| 20260901155433 | 31 | 247 | 6.4 | 6.4 | 0.00 | 0.00 | 0.00 | 77 | 1015.7 |
| 20260901154930 | 31 | 340 | 1.6 | 3.2 | 0.00 | 0.00 | 0.00 | 77 | 1015.6 |
| 20260901154429 | 31 | 260 | 3.2 | 3.2 | 0.00 | 0.00 | 0.00 | 76 | 1015.6 |
| 20260901153923 | 31 | 200 | 4.8 | 4.8 | 0.00 | 0.00 | 0.00 | 78 | 1015.9 |
| 20260901153424 | 30 | 299 | 4.8 | 4.8 | 0.00 | 0.00 | 0.00 | 78 | 1015.8 |
| 20260901152917 | 30 | 192 | 6.4 | 6.4 | 0.00 | 0.00 | 0.00 | 81 | 1016.0 |
| 20260901152412 | 29 | 211 | 4.8 | 4.8 | 0.00 | 0.00 | 0.00 | 81 | 1015.7 |
| 20260901151912 | 28 | 216 | 4.8 | 6.4 | 0.00 | 0.00 | 0.00 | 83 | 1015.7 |
| 20260901151407 | 29 | 13 | 4.8 | 4.8 | 0.00 | 0.00 | 0.00 | 81 | 1015.8 |
| 20260901150906 | 28 | 261 | 4.8 | 4.8 | 0.00 | 0.00 | 0.00 | 84 | 1015.9 |
| 20260901150404 | 28 | 262 | 6.4 | 6.4 | 0.00 | 0.00 | 0.00 | 84 | 1015.9 |
| 20260901145902 | 27 | 245 | 3.2 | 3.2 | 0.00 | 0.00 | 0.00 | 84 | 1015.4 |
| 20260901145402 | 27 | 284 | 6.4 | 9.7 | 0.00 | 0.00 | 0.00 | 87 | 1015.7 |
| 20260901144902 | 27 | 226 | 6.4 | 6.4 | 0.00 | 0.00 | 0.00 | 86 | 1015.6 |
| 20260901144357 | 28 | 225 | 3.2 | 3.2 | 0.00 | 0.00 | 0.00 | 81 | 1015.9 |
| 20260901143853 | 27 | 316 | 1.6 | 1.6 | 0.00 | 0.00 | 0.00 | 84 | 1015.8 |
| 20260901143349 | 26 | 325 | 1.6 | 3.2 | 0.00 | 0.00 | 0.00 | 88 | 1016.0 |
| 20260901142845 | 27 | 304 | 3.2 | 4.8 | 0.00 | 0.00 | 0.00 | 84 | 1016.0 |
| 20260901142344 | 26 | 325 | 0.0 | 1.6 | 0.00 | 0.00 | 0.00 | 87 | 1016.0 |
| 20260901141839 | 26 | 340 | 0.0 | 0.0 | 0.00 | 0.00 | 0.00 | 89 | 1016.1 |
| 20260901141334 | 26 | 350 | 1.6 | 1.6 | 0.00 | 0.00 | 0.00 | 89 | 1016.0 |
| 20260901140833 | 25 | 329 | 1.6 | 1.6 | 0.00 | 0.00 | 0.00 | 90 | 1016.2 |
| 20260901140331 | 25 | 299 | 3.2 | 3.2 | 0.00 | 0.00 | 0.00 | 90 | 1016.0 |
| 20260901135826 | 25 | 331 | 1.6 | 3.2 | 0.00 | 0.00 | 0.00 | 91 | 1016.2 |
| 20260901135322 | 25 | 280 | 3.2 | 4.8 | 0.00 | 0.00 | 0.00 | 91 | 1016.2 |
| 20260901134818 | 25 | 271 | 4.8 | 4.8 | 0.00 | 0.00 | 0.00 | 90 | 1016.1 |
| 20260901134313 | 25 | 320 | 1.6 | 3.2 | 0.00 | 0.00 | 0.00 | 90 | 1016.2 |
| 20260901133807 | 25 | 335 | 1.6 | 3.2 | 0.00 | 0.00 | 0.00 | 90 | 1016.3 |
| 20260901133306 | 25 | 326 | 1.6 | 1.6 | 0.00 | 0.00 | 0.00 | 90 | 1016.1 |
| 20260901132805 | 25 | 340 | 1.6 | 1.6 | 0.00 | 0.00 | 0.00 | 90 | 1016.1 |
| 20260901132300 | 25 | 318 | 1.6 | 1.6 | 0.00 | 0.00 | 0.00 | 90 | 1016.0 |
| 20260901131759 | 25 | 221 | 1.6 | 3.2 | 0.00 | 0.00 | 0.00 | 89 | 1016.0 |
| 20260901131259 | 25 | 324 | 1.6 | 1.6 | 0.00 | 0.00 | 0.00 | 89 | 1015.9 |
| 20260901130754 | 25 | 345 | 0.0 | 0.0 | 0.00 | 0.00 | 0.00 | 89 | 1016.0 |
| 20260901130249 | 24 | 345 | 0.0 | 0.0 | 0.00 | 0.00 | 0.00 | 90 | 1016.1 |
| 20260901125747 | 24 | 331 | 1.6 | 1.6 | 0.00 | 0.00 | 0.00 | 92 | 1016.1 |
| 20260901125242 | 23 | 324 | 1.6 | 1.6 | 0.00 | 0.00 | 0.00 | 93 | 1016.1 |
| 20260901124741 | 23 | 350 | 0.0 | 0.0 | 0.00 | 0.00 | 0.00 | 94 | 1016.1 |
| 20260901124236 | 23 | 292 | 1.6 | 1.6 | 0.00 | 0.00 | 0.00 | 94 | 1016.1 |
| 20260901123736 | 23 | 295 | 1.6 | 3.2 | 0.00 | 0.00 | 0.00 | 94 | 1016.0 |